{"data":{"norad_id":67108,"intl_designator":"2025-299G","name":"STARLINK-36208","alt_names":[],"object_type":"PAYLOAD","status":"ACTIVE","operator":null,"country":"US","launch_date":"2025-12-15","launch_site_code":"AFETR","launch_vehicle":null,"mission":null,"orbit_class":"UNKNOWN","rcs_meters":null,"size_class":null,"mass_kg":null,"dimensions":null,"purposes":["comms"],"wikipedia_slug":null,"has_3d_model":false,"image_url":null,"decayed_at":null,"tle_current":{"epoch":"2026-09-20T22:55:54.332544Z","epoch_age_seconds":39183,"freshness":"FRESH","line1":"1 67108U 25299G   26263.95548996  .00012200  00000+0  45201-3 0  9992","line2":"2 67108  42.9995 145.8815 0001145 273.0019  87.0702 15.27589492 42986","mean_motion":15.27589492,"eccentricity":0.0001145,"inclination_deg":42.9995,"raan_deg":145.8815,"arg_perigee_deg":273.0019,"mean_anomaly_deg":87.0702,"bstar":0.00045201,"rev_number":4298,"period_min":94.266162967295,"perigee_km":482.23507117046,"apogee_km":483.80627627774,"semimajor_km":6861.1576737241,"source":"CELESTRAK","updated_at":"2026-09-21T09:00:36.104849Z"}}}